Location: Lafig�re
(44.4503°N, 4.0357°E)
Time: 16:30:48
(UTC+00:00)

deb Explorer IX - Pass Details

Date: 22 January 2021
Orbit: 537 x 1102 km, 38.8° (Epoch: 04 March)

Event Time Altitude Azimuth Distance (km) Brightness Sun altitude
Rises 22:26:54 0° 270° (W) 3,149 - -58.9°
Reaches altitude 10° 22:29:52 10° 257° (WSW) 2,121 - -59.3°
Maximum altitude 22:33:41 23° 205° (SSW) 1,329 - -59.7°
Drops below altitude 10° 22:37:08 10° 152° (SSE) 1,899 - -60.1°
Sets 22:39:39 0° 137° (SE) 2,740 - -60.4°
